View from above orbital plane
|
View from above satellite
|
Ground track
|
The orbit data is extracted from the following two-line orbital elements,
1 20847U 90081K 21059.75209447 .00002423 00000-0 28626-3 0 9992
2 20847 98.5736 55.0814 0017092 52.7017 307.5751 14.85631388606271
Epoch (UTC): | 28 February 2021 18:03:00 |
Eccentricity: | 0.0017092 |
inclination: | 98.5736° |
perigee height: | 599 km |
apogee height: | 623 km |
right ascension of ascending node: | 55.0814° |
argument of perigee: | 52.7017° |
revolutions per day: | 14.85631388 |
mean anomaly at epoch: | 307.5751° |
orbit number at epoch: | 60627 |
The dashed part of the orbit path shows where the satellite is in the earth's shadow,
|
|